This demonstration page uses our WeatherBlox Daily Observations layout. Learn more.

Left ArrowRight Arrow

34.16533, -84.80231

Hourly Observations for September 15, 2017

Temp ( °F °C ) Dew Point ( °F °C ) Humidity (%) Winds ( mph kmh ) Pressure ( in mb ) Visibility ( mi km ) Precip ( " mm )
12:53 am 00:53 Clear 62 16.7 62 16.7 100 100 Calm 30.01 1016 7 11 0.00 0.00
1:53 am 01:53 Clear 61 16.1 61 16.1 100 100 Calm 30.01 1016 7 11 0.00 0.00
2:53 am 02:53 Clear 61 16.1 61 16.1 100 100 Calm 30.01 1016 9 14 0.00 0.00
3:53 am 03:53 Mostly Clear with Mist and Fog 60 15.6 60 15.6 100 100 Calm 30.01 1016 6 10 0.00 0.00
4:22 am 04:22 Mostly Cloudy 60 15.6 60 15.6 100 100 Calm 30.03 1017 7 11 0.00 0.00
4:30 am 04:30 Mostly Cloudy with Mist and Fog 60 15.6 60 15.6 100 100 Calm 30.03 1017 3 4 0.00 0.00
4:38 am 04:38 Mostly Cloudy with Mist and Fog 60 15.6 60 15.6 100 100 Calm 30.03 1017 2 3 0.00 0.00
4:41 am 04:41 Cloudy with Mist and Fog 59 15 59 15 100 100 Calm 30.03 1017 3 5 0.00 0.00
4:53 am 04:53 Cloudy with Mist and Fog 61 16.1 61 16.1 100 100 Calm 30.02 1017 2 3 0.00 0.00
4:57 am 04:57 Cloudy with Mist and Fog 61 16.1 61 16.1 100 100 Calm 30.03 1017 3 5 0.00 0.00
5:53 am 05:53 Cloudy 62 16.7 62 16.7 100 100 Calm 30.03 1017 8 13 0.00 0.00
6:53 am 06:53 Cloudy 63 17.2 63 17.2 100 100 Calm 30.06 1018 8 13 0.00 0.00
7:53 am 07:53 Partly Cloudy with Mist and Fog 63 17.2 63 17.2 100 100 Calm 30.08 1019 6 10 0.00 0.00
8:53 am 08:53 Partly Cloudy 66 18.9 66 18.9 100 100 Calm 30.09 1019 8 13 0.00 0.00
9:53 am 09:53 Sunny 67 19.4 67 19.4 100 100 Calm 30.10 1019 7 11 0.00 0.00
10:53 am 10:53 Sunny 72 22.2 68 20 87 87 Calm 30.10 1019 10 16 0.00 0.00
11:53 am 11:53 Sunny 77 25 68 20 74 74 VRB 3 6 30.09 1019 10 16 0.00 0.00
12:53 pm 12:53 Partly Cloudy 80 26.7 65 18.3 60 60 Calm 30.07 1018 10 16 0.00 0.00
1:53 pm 13:53 Mostly Sunny 81 27.2 65 18.3 58 58 Calm 30.06 1018 10 16 0.00 0.00
2:53 pm 14:53 Mostly Cloudy 84 28.9 65 18.3 53 53 E 6 9 30.04 1017 10 16 0.00 0.00
3:53 pm 15:53 Partly Cloudy 83 28.3 67 19.4 59 59 N 7 11 30.03 1017 10 16 0.00 0.00
4:53 pm 16:53 Sunny 85 29.4 66 18.9 53 53 Calm 30.03 1017 10 16 0.00 0.00
5:53 pm 17:53 Sunny 83 28.3 66 18.9 57 57 Calm 30.02 1017 10 16 0.00 0.00
6:53 pm 18:53 Sunny 77 25 71 21.7 82 82 Calm 30.02 1017 10 16 0.00 0.00
7:53 pm 19:53 Clear 70 21.1 70 21.1 100 100 Calm 30.03 1017 8 13 0.00 0.00
8:53 pm 20:53 Clear 68 20 68 20 100 100 Calm 30.05 1018 8 13 0.00 0.00
9:53 pm 21:53 Mostly Clear with Mist and Fog 67 19.4 67 19.4 100 100 Calm 30.07 1018 6 10 0.00 0.00
10:53 pm 22:53 Mostly Clear 66 18.9 66 18.9 100 100 Calm 30.07 1018 7 11 0.00 0.00
11:53 pm 23:53 Clear 65 18.3 65 18.3 100 100 Calm 30.07 1018 7 11 0.00 0.00

Powered by AerisWeather